Time,TemperatureF,DewpointF,PressureIn,WindDirection,WindDirectionDegrees,WindSpeedMPH,WindSpeedGustMPH,Humidity,HourlyPrecipIn,Conditions,Clouds,dailyrainin,SoftwareType,DateUTC
2013-01-19 00:02:00,47.0,16.0,30.14,ESE,121,10.0,15.0,29,0.00,,,0.00,,2013-01-19 08:02:00,
2013-01-19 00:11:00,47.0,16.0,30.14,ESE,121,10.0,15.0,29,0.00,,,0.00,,2013-01-19 08:11:00,
2013-01-19 00:22:00,47.0,16.0,30.13,ESE,111,10.0,16.0,29,0.00,,,0.00,,2013-01-19 08:22:00,
2013-01-19 00:32:00,47.0,16.0,30.13,ESE,123,10.0,18.0,29,0.00,,,0.00,,2013-01-19 08:32:00,
2013-01-19 00:42:00,47.0,16.0,30.13,ESE,123,10.0,18.0,29,0.00,,,0.00,,2013-01-19 08:42:00,
2013-01-19 00:53:00,47.0,16.0,30.13,SE,124,9.0,15.0,29,0.00,,,0.00,,2013-01-19 08:53:00,
2013-01-19 01:02:00,47.0,16.0,30.13,ESE,118,9.0,15.0,29,0.00,,,0.00,,2013-01-19 09:02:00,
2013-01-19 01:11:00,47.0,16.0,30.13,ESE,118,9.0,15.0,29,0.00,,,0.00,,2013-01-19 09:11:00,
2013-01-19 01:22:00,47.0,16.0,30.13,ESE,111,9.0,16.0,29,0.00,,,0.00,,2013-01-19 09:22:00,
2013-01-19 01:32:00,48.0,16.0,30.13,ESE,114,11.0,18.0,28,0.00,,,0.00,,2013-01-19 09:32:00,
2013-01-19 01:42:00,48.0,16.0,30.13,ESE,114,11.0,18.0,28,0.00,,,0.00,,2013-01-19 09:42:00,
2013-01-19 01:52:00,48.0,16.0,30.12,ESE,115,10.0,16.0,28,0.00,,,0.00,,2013-01-19 09:52:00,
2013-01-19 02:01:00,48.0,16.0,30.13,ESE,119,11.0,16.0,28,0.00,,,0.00,,2013-01-19 10:01:00,
2013-01-19 02:12:00,48.0,16.0,30.13,ESE,119,11.0,16.0,28,0.00,,,0.00,,2013-01-19 10:12:00,
2013-01-19 02:22:00,47.0,16.0,30.13,ESE,108,7.0,16.0,29,0.00,,,0.00,,2013-01-19 10:22:00,
2013-01-19 02:32:00,47.0,16.0,30.13,ESE,118,11.0,16.0,29,0.00,,,0.00,,2013-01-19 10:32:00,
2013-01-19 02:42:00,47.0,16.0,30.13,ESE,118,11.0,16.0,29,0.00,,,0.00,,2013-01-19 10:42:00,
2013-01-19 02:52:00,47.0,16.0,30.13,ESE,120,8.0,14.0,29,0.00,,,0.00,,2013-01-19 10:52:00,
2013-01-19 03:02:00,47.0,16.0,30.13,ESE,120,8.0,12.0,29,0.00,,,0.00,,2013-01-19 11:02:00,
2013-01-19 03:11:00,47.0,16.0,30.13,ESE,120,8.0,12.0,29,0.00,,,0.00,,2013-01-19 11:11:00,
2013-01-19 04:47:00,47.0,16.0,30.14,ESE,123,9.0,15.0,29,0.00,,,0.00,,2013-01-19 12:47:00,
2013-01-19 04:53:00,47.0,16.0,30.14,ESE,122,10.0,15.0,29,0.00,,,0.00,,2013-01-19 12:53:00,
2013-01-19 05:02:00,47.0,16.0,30.14,ESE,118,11.0,15.0,29,0.00,,,0.00,,2013-01-19 13:02:00,
2013-01-19 05:11:00,47.0,16.0,30.14,ESE,118,11.0,15.0,29,0.00,,,0.00,,2013-01-19 13:11:00,
2013-01-19 05:22:00,47.0,16.0,30.14,ESE,123,11.0,18.0,28,0.00,,,0.00,,2013-01-19 13:22:00,
2013-01-19 05:32:00,47.0,16.0,30.15,SE,125,11.0,18.0,28,0.00,,,0.00,,2013-01-19 13:32:00,
2013-01-19 05:42:00,47.0,16.0,30.15,SE,125,11.0,18.0,28,0.00,,,0.00,,2013-01-19 13:42:00,
2013-01-19 05:53:00,47.0,16.0,30.14,ESE,118,8.0,18.0,29,0.00,,,0.00,,2013-01-19 13:53:00,
2013-01-19 06:01:00,47.0,16.0,30.15,ESE,117,9.0,15.0,29,0.00,,,0.00,,2013-01-19 14:01:00,
2013-01-19 06:12:00,47.0,16.0,30.15,ESE,117,9.0,15.0,29,0.00,,,0.00,,2013-01-19 14:12:00,
2013-01-19 06:22:00,47.0,16.0,30.15,ESE,116,11.0,19.0,28,0.00,,,0.00,,2013-01-19 14:22:00,
2013-01-19 06:33:00,47.0,16.0,30.15,SE,124,9.0,17.0,28,0.00,,,0.00,,2013-01-19 14:33:00,
2013-01-19 06:42:00,47.0,16.0,30.15,SE,124,9.0,17.0,28,0.00,,,0.00,,2013-01-19 14:42:00,
2013-01-19 06:52:00,47.0,15.0,30.16,ESE,118,10.0,17.0,27,0.00,,,0.00,,2013-01-19 14:52:00,
2013-01-19 07:02:00,47.0,15.0,30.16,ESE,115,11.0,19.0,27,0.00,,,0.00,,2013-01-19 15:02:00,
2013-01-19 07:12:00,47.0,15.0,30.16,ESE,115,11.0,19.0,27,0.00,,,0.00,,2013-01-19 15:12:00,
2013-01-19 07:22:00,47.0,15.0,30.16,ESE,110,9.0,22.0,27,0.00,,,0.00,,2013-01-19 15:22:00,
2013-01-19 07:32:00,47.0,16.0,30.17,East,101,10.0,18.0,28,0.00,,,0.00,,2013-01-19 15:32:00,
2013-01-19 07:42:00,47.0,16.0,30.17,East,101,10.0,18.0,28,0.00,,,0.00,,2013-01-19 15:42:00,
2013-01-19 07:53:00,49.0,16.0,30.18,ESE,108,15.0,20.0,26,0.00,,,0.00,,2013-01-19 15:53:00,
2013-01-19 08:02:00,50.0,16.0,30.18,ESE,109,14.0,20.0,26,0.00,,,0.00,,2013-01-19 16:02:00,
2013-01-19 08:12:00,50.0,16.0,30.18,ESE,109,14.0,20.0,26,0.00,,,0.00,,2013-01-19 16:12:00,
2013-01-19 08:22:00,50.0,16.0,30.19,ESE,106,10.0,18.0,26,0.00,,,0.00,,2013-01-19 16:22:00,
2013-01-19 08:32:00,51.0,16.0,30.19,East,101,12.0,18.0,25,0.00,,,0.00,,2013-01-19 16:32:00,
2013-01-19 08:42:00,51.0,16.0,30.19,East,101,12.0,18.0,25,0.00,,,0.00,,2013-01-19 16:42:00,
2013-01-19 08:53:00,52.0,18.0,30.19,ESE,108,12.0,18.0,26,0.00,,,0.00,,2013-01-19 16:53:00,
2013-01-19 09:02:00,52.0,17.0,30.19,ESE,113,13.0,21.0,25,0.00,,,0.00,,2013-01-19 17:02:00,
2013-01-19 09:12:00,52.0,17.0,30.19,ESE,113,13.0,21.0,25,0.00,,,0.00,,2013-01-19 17:12:00,
2013-01-19 09:24:00,53.0,17.0,30.20,ESE,113,13.0,20.0,24,0.00,,,0.00,,2013-01-19 17:24:00,
2013-01-19 09:32:00,54.0,19.0,30.21,East,97,12.0,16.0,25,0.00,,,0.00,,2013-01-19 17:32:00,
2013-01-19 09:54:00,54.0,20.0,30.21,East,98,9.0,16.0,26,0.00,,,0.00,,2013-01-19 17:54:00,
2013-01-19 10:03:00,54.0,17.0,30.21,East,81,14.0,21.0,23,0.00,,,0.00,,2013-01-19 18:03:00,
2013-01-19 10:12:00,54.0,17.0,30.21,East,81,14.0,21.0,23,0.00,,,0.00,,2013-01-19 18:12:00,
2013-01-19 10:23:00,55.0,19.0,30.21,ENE,77,13.0,22.0,24,0.00,,,0.00,,2013-01-19 18:23:00,
2013-01-19 10:32:00,54.0,18.0,30.20,East,80,12.0,21.0,24,0.00,,,0.00,,2013-01-19 18:32:00,
2013-01-19 10:43:00,54.0,18.0,30.20,East,80,12.0,21.0,24,0.00,,,0.00,,2013-01-19 18:43:00,
2013-01-19 10:53:00,55.0,18.0,30.20,ENE,75,12.0,25.0,23,0.00,,,0.00,,2013-01-19 18:53:00,
2013-01-19 11:22:00,56.0,19.0,30.19,East,93,12.0,20.0,23,0.00,,,0.00,,2013-01-19 19:22:00,
2013-01-19 11:43:00,56.0,18.0,30.18,East,87,12.0,22.0,22,0.00,,,0.00,,2013-01-19 19:43:00,
2013-01-19 12:02:00,56.0,17.0,30.16,ENE,70,14.0,22.0,21,0.00,,,0.00,,2013-01-19 20:02:00,
2013-01-19 12:12:00,56.0,17.0,30.16,ENE,70,14.0,22.0,21,0.00,,,0.00,,2013-01-19 20:12:00,
2013-01-19 12:32:00,56.0,17.0,30.16,ENE,76,14.0,23.0,21,0.00,,,0.00,,2013-01-19 20:32:00,
2013-01-19 12:42:00,56.0,17.0,30.16,ENE,76,14.0,23.0,21,0.00,,,0.00,,2013-01-19 20:42:00,
2013-01-19 12:55:00,56.0,16.0,30.14,East,80,15.0,23.0,20,0.00,,,0.00,,2013-01-19 20:55:00,
2013-01-19 13:02:00,56.0,17.0,30.14,East,82,14.0,21.0,21,0.00,,,0.00,,2013-01-19 21:02:00,
2013-01-19 13:12:00,56.0,17.0,30.14,East,82,14.0,21.0,21,0.00,,,0.00,,2013-01-19 21:12:00,
2013-01-19 13:22:00,56.0,17.0,30.14,ENE,75,14.0,21.0,21,0.00,,,0.00,,2013-01-19 21:22:00,
2013-01-19 13:33:00,56.0,17.0,30.14,ENE,75,12.0,20.0,21,0.00,,,0.00,,2013-01-19 21:33:00,
2013-01-19 13:44:00,56.0,17.0,30.14,ENE,75,12.0,20.0,21,0.00,,,0.00,,2013-01-19 21:44:00,
2013-01-19 13:57:00,57.0,17.0,30.14,East,90,11.0,20.0,21,0.00,,,0.00,,2013-01-19 21:57:00,
2013-01-19 14:02:00,57.0,17.0,30.13,ENE,78,13.0,20.0,21,0.00,,,0.00,,2013-01-19 22:02:00,
2013-01-19 14:12:00,57.0,17.0,30.13,ENE,78,13.0,20.0,21,0.00,,,0.00,,2013-01-19 22:12:00,
2013-01-19 14:23:00,56.0,17.0,30.13,ENE,77,11.0,19.0,21,0.00,,,0.00,,2013-01-19 22:23:00,
2013-01-19 14:32:00,56.0,17.0,30.13,ENE,78,11.0,18.0,21,0.00,,,0.00,,2013-01-19 22:32:00,
2013-01-19 14:43:00,56.0,17.0,30.13,ENE,78,11.0,18.0,21,0.00,,,0.00,,2013-01-19 22:43:00,
2013-01-19 14:55:00,56.0,17.0,30.13,East,92,8.0,16.0,21,0.00,,,0.00,,2013-01-19 22:55:00,
2013-01-19 15:03:00,56.0,17.0,30.13,ENE,77,9.0,17.0,21,0.00,,,0.00,,2013-01-19 23:03:00,
2013-01-19 15:12:00,56.0,17.0,30.13,ENE,77,9.0,17.0,21,0.00,,,0.00,,2013-01-19 23:12:00,
2013-01-19 15:22:00,56.0,17.0,30.13,East,88,10.0,17.0,21,0.00,,,0.00,,2013-01-19 23:22:00,
2013-01-19 15:32:00,56.0,18.0,30.13,ENE,78,9.0,14.0,22,0.00,,,0.00,,2013-01-19 23:32:00,
2013-01-19 16:01:00,55.0,17.0,30.13,East,95,9.0,15.0,22,0.00,,,0.00,,2013-01-20 00:01:00,
2013-01-19 16:13:00,55.0,17.0,30.13,ENE,74,9.0,13.0,22,0.00,,,0.00,,2013-01-20 00:13:00,
2013-01-19 16:23:00,54.0,17.0,30.13,East,100,7.0,14.0,23,0.00,,,0.00,,2013-01-20 00:23:00,
2013-01-19 16:33:00,54.0,17.0,30.13,East,101,6.0,15.0,23,0.00,,,0.00,,2013-01-20 00:33:00,
2013-01-19 16:54:00,52.0,15.0,30.13,East,95,6.0,14.0,23,0.00,,,0.00,,2013-01-20 00:54:00,
2013-01-19 17:02:00,50.0,15.0,30.13,ESE,114,5.0,13.0,24,0.00,,,0.00,,2013-01-20 01:02:00,
2013-01-19 17:22:00,49.0,14.0,30.13,ESE,117,7.0,12.0,24,0.00,,,0.00,,2013-01-20 01:22:00,
2013-01-19 17:32:00,49.0,15.0,30.13,ESE,117,6.0,18.0,25,0.00,,,0.00,,2013-01-20 01:32:00,
2013-01-19 17:43:00,49.0,15.0,30.13,ESE,117,6.0,18.0,25,0.00,,,0.00,,2013-01-20 01:43:00,
2013-01-19 17:59:00,48.0,13.0,30.14,ESE,118,7.0,12.0,24,0.00,,,0.00,,2013-01-20 01:59:00,
2013-01-19 18:12:00,48.0,14.0,30.14,SE,126,5.0,15.0,25,0.00,,,0.00,,2013-01-20 02:12:00,
2013-01-19 18:23:00,48.0,14.0,30.14,ESE,111,8.0,15.0,25,0.00,,,0.00,,2013-01-20 02:23:00,
2013-01-19 18:42:00,48.0,13.0,30.14,ESE,115,11.0,19.0,24,0.00,,,0.00,,2013-01-20 02:42:00,
2013-01-19 18:57:00,48.0,13.0,30.14,ESE,117,7.0,16.0,24,0.00,,,0.00,,2013-01-20 02:57:00,
2013-01-19 19:03:00,48.0,14.0,30.14,ESE,108,6.0,13.0,25,0.00,,,0.00,,2013-01-20 03:03:00,
2013-01-19 19:12:00,48.0,14.0,30.14,ESE,108,6.0,13.0,25,0.00,,,0.00,,2013-01-20 03:12:00,
2013-01-19 19:23:00,48.0,14.0,30.14,East,93,7.0,12.0,25,0.00,,,0.00,,2013-01-20 03:23:00,
2013-01-19 19:43:00,48.0,14.0,30.14,East,99,8.0,14.0,25,0.00,,,0.00,,2013-01-20 03:43:00,
2013-01-19 19:55:00,48.0,14.0,30.15,East,98,8.0,15.0,25,0.00,,,0.00,,2013-01-20 03:55:00,
2013-01-19 20:02:00,48.0,14.0,30.15,East,99,9.0,18.0,25,0.00,,,0.00,,2013-01-20 04:02:00,
2013-01-19 20:22:00,48.0,14.0,30.15,ESE,103,7.0,13.0,25,0.00,,,0.00,,2013-01-20 04:22:00,
2013-01-19 20:32:00,48.0,14.0,30.15,ESE,105,8.0,14.0,25,0.00,,,0.00,,2013-01-20 04:32:00,
2013-01-19 20:42:00,48.0,14.0,30.15,ESE,105,8.0,14.0,25,0.00,,,0.00,,2013-01-20 04:42:00,
2013-01-19 20:55:00,47.0,13.0,30.15,ESE,105,8.0,13.0,25,0.00,,,0.00,,2013-01-20 04:55:00,
2013-01-19 21:01:00,47.0,13.0,30.15,ESE,114,8.0,13.0,25,0.00,,,0.00,,2013-01-20 05:01:00,
2013-01-19 21:12:00,47.0,13.0,30.15,ESE,114,8.0,13.0,25,0.00,,,0.00,,2013-01-20 05:12:00,
2013-01-19 21:22:00,47.0,13.0,30.16,ESE,112,6.0,12.0,25,0.00,,,0.00,,2013-01-20 05:22:00,
2013-01-19 21:32:00,47.0,13.0,30.15,East,99,6.0,11.0,25,0.00,,,0.00,,2013-01-20 05:32:00,
2013-01-19 21:42:00,47.0,13.0,30.15,East,99,6.0,11.0,25,0.00,,,0.00,,2013-01-20 05:42:00,
2013-01-19 21:53:00,47.0,14.0,30.16,ESE,123,6.0,8.0,26,0.00,,,0.00,,2013-01-20 05:53:00,
2013-01-19 22:02:00,47.0,14.0,30.16,SE,129,8.0,12.0,26,0.00,,,0.00,,2013-01-20 06:02:00,
2013-01-19 22:11:00,47.0,14.0,30.16,SE,129,8.0,12.0,26,0.00,,,0.00,,2013-01-20 06:11:00,
2013-01-19 22:22:00,47.0,14.0,30.16,ESE,118,6.0,12.0,26,0.00,,,0.00,,2013-01-20 06:22:00,
2013-01-19 22:32:00,46.0,14.0,30.16,SE,126,6.0,8.0,27,0.00,,,0.00,,2013-01-20 06:32:00,
2013-01-19 22:42:00,46.0,14.0,30.16,SE,126,6.0,8.0,27,0.00,,,0.00,,2013-01-20 06:42:00,
2013-01-19 22:52:00,45.0,13.0,30.16,SE,135,2.0,5.0,27,0.00,,,0.00,,2013-01-20 06:52:00,
2013-01-19 23:02:00,46.0,13.0,30.16,SE,135,1.0,5.0,26,0.00,,,0.00,,2013-01-20 07:02:00,
2013-01-19 23:11:00,46.0,13.0,30.16,SE,135,1.0,5.0,26,0.00,,,0.00,,2013-01-20 07:11:00,
2013-01-19 23:22:00,47.0,12.0,30.16,SE,135,1.0,4.0,24,0.00,,,0.00,,2013-01-20 07:22:00,
2013-01-19 23:32:00,46.0,12.0,30.16,SE,135,4.0,5.0,25,0.00,,,0.00,,2013-01-20 07:32:00,
2013-01-19 23:42:00,46.0,12.0,30.16,SE,135,4.0,5.0,25,0.00,,,0.00,,2013-01-20 07:42:00,
2013-01-19 23:52:00,46.0,12.0,30.16,SE,135,3.0,6.0,25,0.00,,,0.00,,2013-01-20 07:52:00,